Flag for India Weather past 2 weeks in Amravati, Maharashtra, India

Now
79 °F

Scattered clouds.


Feels Like: 82 °F
Forecast: 76 / 86 °F
Wind: 7 mph from Southwest

Location: Nagpur Sonegaon

Current Time: Jul 29, 2015 at 8:38:05 AM

Latest Report: Jul 29, 2015 at 8:10 AM


Visibility: 4 mi

Pressure: 29.77 "Hg

Humidity: 79%

Dew point: 72 °F

Location of AmravatiLocation

Historic Weather in Amravati — Graph

°F

Amravati temperature yesterday

Maximum temperature yesterday: 88 °F (at 1:10 PM)
Minimum temperature yesterday: 73 °F (at 6:10 AM)
Average temperature yesterday: 79 °F

Past Weeks' High & Low Weather Summary

 TemperatureHumidityPressure
High100 °F (Jul 14, 3:10 PM)100% (Jul 20, 7:40 AM)29.80 "Hg (Jul 20, 7:40 AM)
Low73 °F (Jul 24, 2:40 AM)44% (Jul 14, 5:40 PM)29.47 "Hg (Jul 15, 4:40 PM)
Average83 °F78%29.63 "Hg
* Reported Jul 14 8:40 AM — Jul 29 7:10 AM, Amravati, Weather by CustomWeather, © 2015

Note: Actual official high and low records may vary slightly from our data, if they occured in-between our weather recording intervals... More about our weather records

Advertising

Amravati weather history for previous 24 hours

 ConditionsComfort  
Time TempWeatherWind HumidityBarometerVisibility
7:10 AM
Wed, Jul 29
73 °FClear.5 mph94%29.74 "HgN/A
5:10 AM73 °FPartly cloudy.3 mph89%29.74 "Hg2 mi
4:40 AM73 °FPartly cloudy.3 mph89%29.74 "Hg2 mi
3:10 AM73 °FPartly cloudy.2 mph89%29.74 "Hg2 mi
2:40 AM73 °FPartly cloudy.2 mph89%29.74 "Hg2 mi
1:40 AM73 °FLight rain. Partly cloudy.3 mph89%29.74 "Hg2 mi
1:10 AM75 °FLight rain. Partly cloudy.3 mph83%29.74 "Hg2 mi
11:40 PM
Tue, Jul 28
75 °FThunderstorms. Partly cloudy.3 mph89%29.77 "Hg2 mi
11:10 PM75 °FThunderstorms. Partly cloudy.5 mph94%29.77 "Hg2 mi
10:40 PM75 °FThunderstorms. Partly cloudy.9 mph94%29.77 "Hg2 mi
10:10 PM75 °FThunderstorms. Partly cloudy.2 mph94%29.80 "Hg2 mi
9:40 PM75 °FThunderstorms. Partly cloudy.3 mph89%29.77 "Hg2 mi
9:10 PM73 °FThunderstorms. Partly cloudy.No wind94%29.77 "Hg2 mi
8:40 PM73 °FThunderstorms. Partly cloudy.5 mph89%29.77 "Hg2 mi
8:10 PM81 °FPartly cloudy.16 mph74%29.77 "Hg2 mi
7:40 PM81 °FPassing clouds.No wind79%29.74 "Hg2 mi
7:10 PM82 °FHaze.No wind74%29.71 "Hg2 mi
6:40 PM82 °FHaze.2 mph79%29.71 "Hg2 mi
6:10 PM84 °FHaze.9 mph74%29.71 "Hg2 mi
5:40 PM88 °FHaze.No wind66%29.71 "Hg2 mi
5:10 PM88 °FScattered clouds.No wind70%29.71 "Hg2 mi
3:40 PM88 °FBroken clouds.6 mph66%29.71 "Hg4 mi
3:10 PM88 °FBroken clouds.7 mph66%29.71 "Hg4 mi
2:40 PM88 °FBroken clouds.3 mph62%29.71 "Hg4 mi
1:40 PM88 °FBroken clouds.8 mph66%29.74 "Hg4 mi
1:10 PM88 °FBroken clouds.5 mph66%29.74 "Hg4 mi
12:40 PM86 °FPartly sunny.7 mph66%29.77 "Hg4 mi
11:40 AM84 °FPartly sunny.9 mph66%29.77 "Hg4 mi
10:40 AM84 °FPartly sunny.7 mph66%29.80 "Hg4 mi
10:10 AM82 °FPartly sunny.6 mph70%29.80 "Hg4 mi
9:40 AM82 °FPartly sunny.3 mph74%29.77 "Hg4 mi
8:40 AM79 °FPartly sunny.6 mph74%29.77 "Hg4 mi
8:10 AM77 °FPartly sunny.6 mph79%29.77 "Hg4 mi
Weather by CustomWeather, © 2015

See weather overviewHow to use our weather pages